Menomonie, WI

3:21 AM CST on January 22, 2018 (GMT -0600)
Menomonie

Weather History for KLUM - October, 2012

Change the Weather History Date:

Saturday, October 6, 2012

  Actual Average (KEAU) Record (KEAU)
Temperature  
Mean Temperature 38 °F -  
Max Temperature 42 °F 59 °F 87 °F (2007)
Min Temperature 35 °F 38 °F 20 °F (1935)
Degree Days  
Heating Degree Days 26    
Moisture  
Dew Point 25 °F    
Average Humidity 57    
Maximum Humidity 75    
Minimum Humidity 39    
Precipitation  
Precipitation 0.00 in - - ()
Sea Level Pressure  
Sea Level Pressure 30.18 in    
Wind  
Wind Speed 12 mph (WNW)    
Max Wind Speed 18 mph    
Max Gust Speed 32 mph    
Visibility 10 miles    
Events      
Averages and records for this station are not official NWS values.
T = Trace of Precipitation, MM = Missing Value Source: NWS Daily Summary

Daily Weather History Graph

Daily Weather History Graph

Search for Another Location

Airport or City:

Trip Planner

Search our weather history database for the weather conditions in past years. The results will help you decide how hot, cold, wet, or windy it might be!

Date:

Astronomy

Oct. 06, 2012 Rise Set
Actual Time 7:12 AM CDT 6:37 PM CDT
Civil Twilight 6:43 AM CDT 7:07 PM CDT
Nautical Twilight 6:09 AM CDT 7:40 PM CDT
Astronomical Twilight 5:34 AM CDT 8:15 PM CDT
Moon 10:42 PM CDT (10/6) 1:18 PM CDT (10/6)
Length of Visible Light 12h 24m
Length of Day
11h 25m
Waning Gibbous, 65% of the Moon is Illuminated
Oct 6
Waning Gibbous
Oct 8
Last Quarter
Oct 15
New
Oct 21
First Quarter
Oct 29
Full

Hourly Weather History & Observations

Time (CDT) Temp. Windchill Dew Point Humidity Pressure Visibility Wind Dir Wind Speed Gust Speed Precip Events Conditions
12:15 AM 37.4 °F 28.2 °F 24.8 °F 60% 30.08 in 10.0 mi West 16.1 mph 24.2 mph N/A   Overcast
12:35 AM 37.4 °F 28.9 °F 24.8 °F 60% 30.08 in 10.0 mi West 13.8 mph 20.7 mph N/A   Overcast
12:55 AM 37.4 °F 27.5 °F 26.6 °F 65% 30.08 in 10.0 mi West 18.4 mph 26.5 mph N/A   Overcast
1:15 AM 37.4 °F 29.3 °F 26.6 °F 65% 30.08 in 10.0 mi West 12.7 mph - N/A   Overcast
1:35 AM 37.4 °F 29.3 °F 26.6 °F 65% 30.09 in 10.0 mi West 12.7 mph 20.7 mph N/A   Overcast
1:55 AM 37.4 °F 29.8 °F 26.6 °F 65% 30.09 in 10.0 mi West 11.5 mph - N/A   Overcast
2:15 AM 37.4 °F 30.3 °F 26.6 °F 65% 30.09 in 10.0 mi WNW 10.4 mph - N/A   Overcast
2:35 AM 37.4 °F 29.3 °F 26.6 °F 65% 30.09 in 10.0 mi West 12.7 mph - N/A   Overcast
2:55 AM 37.4 °F 28.9 °F 28.4 °F 70% 30.09 in 10.0 mi West 13.8 mph 18.4 mph N/A   Overcast
3:15 AM 37.4 °F 28.9 °F 28.4 °F 70% 30.09 in 10.0 mi West 13.8 mph - N/A   Overcast
3:35 AM 37.4 °F 29.8 °F 28.4 °F 70% 30.09 in 10.0 mi West 11.5 mph - N/A   Overcast
3:55 AM 37.4 °F 29.3 °F 28.4 °F 70% 30.10 in 10.0 mi West 12.7 mph 18.4 mph N/A   Overcast
4:15 AM 37.4 °F 29.8 °F 28.4 °F 70% 30.10 in 10.0 mi West 11.5 mph - N/A   Overcast
4:35 AM 37.4 °F 30.8 °F 28.4 °F 70% 30.10 in 10.0 mi WNW 9.2 mph 16.1 mph N/A   Overcast
4:55 AM 37.4 °F 28.9 °F 28.4 °F 70% 30.11 in 10.0 mi WNW 13.8 mph - N/A   Overcast
5:15 AM 37.4 °F 29.3 °F 28.4 °F 70% 30.11 in 10.0 mi NW 12.7 mph - N/A   Overcast
5:35 AM 37.4 °F 29.3 °F 28.4 °F 70% 30.12 in 10.0 mi NW 12.7 mph 19.6 mph N/A   Overcast
5:55 AM 35.6 °F 27.1 °F 26.6 °F 70% 30.13 in 10.0 mi WNW 12.7 mph 20.7 mph N/A   Overcast
6:15 AM 35.6 °F 27.5 °F 28.4 °F 75% 30.13 in 10.0 mi NW 11.5 mph - N/A   Overcast
6:35 AM 35.6 °F 28.6 °F 28.4 °F 75% 30.14 in 10.0 mi WNW 9.2 mph 16.1 mph N/A   Overcast
6:55 AM 35.6 °F 27.1 °F 28.4 °F 75% 30.15 in 10.0 mi NW 12.7 mph - N/A   Overcast
7:15 AM 35.6 °F 25.9 °F 26.6 °F 70% 30.15 in 10.0 mi NW 16.1 mph 28.8 mph N/A   Overcast
7:35 AM 35.6 °F 28.0 °F 28.4 °F 75% 30.16 in 10.0 mi NW 10.4 mph 24.2 mph N/A   Overcast
7:55 AM 35.6 °F 28.0 °F 28.4 °F 75% 30.17 in 10.0 mi NW 10.4 mph 23.0 mph N/A   Overcast
8:35 AM 35.6 °F 28.6 °F 28.4 °F 75% 30.19 in 10.0 mi NW 9.2 mph 17.3 mph N/A   Overcast
8:55 AM 35.6 °F 27.5 °F 28.4 °F 75% 30.19 in 10.0 mi NW 11.5 mph 17.3 mph N/A   Mostly Cloudy
9:15 AM 37.4 °F 30.3 °F 28.4 °F 70% 30.20 in 10.0 mi NW 10.4 mph - N/A   Scattered Clouds
9:35 AM 39.2 °F 31.2 °F 28.4 °F 65% 30.20 in 10.0 mi NW 13.8 mph 24.2 mph N/A   Mostly Cloudy
9:55 AM 41.0 °F 32.2 °F 26.6 °F 57% 30.20 in 10.0 mi NNW 18.4 mph 32.2 mph N/A   Mostly Cloudy
10:15 AM 41.0 °F 33.1 °F 26.6 °F 57% 30.21 in 10.0 mi NNW 15.0 mph 21.9 mph N/A   Mostly Cloudy
10:35 AM 39.2 °F 30.5 °F 26.6 °F 61% 30.22 in 10.0 mi NNW 16.1 mph - N/A   Mostly Cloudy
10:55 AM 39.2 °F 30.8 °F 26.6 °F 61% 30.23 in 10.0 mi NW 15.0 mph - N/A   Overcast
11:15 AM 41.0 °F 34.7 °F 26.6 °F 57% 30.23 in 10.0 mi NW 10.4 mph - N/A   Overcast
11:35 AM 41.0 °F 33.5 °F 24.8 °F 53% 30.23 in 10.0 mi NW 13.8 mph 18.4 mph N/A   Overcast
11:55 AM 42.8 °F 36.2 °F 24.8 °F 49% 30.23 in 10.0 mi NW 12.7 mph 19.6 mph N/A   Scattered Clouds
12:15 PM 42.8 °F 36.2 °F 24.8 °F 49% 30.23 in 10.0 mi NW 12.7 mph 21.9 mph N/A   Mostly Cloudy
12:35 PM 42.8 °F 35.8 °F 23.0 °F 46% 30.23 in 10.0 mi NW 13.8 mph 19.6 mph N/A   Overcast
12:55 PM 42.8 °F 35.4 °F 23.0 °F 46% 30.23 in 10.0 mi NW 15.0 mph 20.7 mph N/A   Overcast
1:15 PM 42.8 °F 37.0 °F 23.0 °F 46% 30.23 in 10.0 mi NNW 10.4 mph 16.1 mph N/A   Overcast
1:35 PM 41.0 °F 34.7 °F 23.0 °F 49% 30.22 in 10.0 mi NW 10.4 mph - N/A   Overcast
1:55 PM 42.8 °F 37.0 °F 23.0 °F 46% 30.22 in 10.0 mi WNW 10.4 mph - N/A   Overcast
2:15 PM 42.8 °F 37.0 °F 21.2 °F 42% 30.22 in 10.0 mi WNW 10.4 mph - N/A   Overcast
2:35 PM 42.8 °F 35.8 °F 21.2 °F 42% 30.22 in 10.0 mi NNW 13.8 mph - N/A   Overcast
2:55 PM 42.8 °F 38.0 °F 23.0 °F 46% 30.22 in 10.0 mi West 8.1 mph - N/A   Overcast
3:15 PM 42.8 °F 37.5 °F 21.2 °F 42% 30.22 in 10.0 mi West 9.2 mph - N/A   Overcast
3:35 PM 42.8 °F 37.5 °F 21.2 °F 42% 30.21 in 10.0 mi WNW 9.2 mph - N/A   Overcast
3:55 PM 42.8 °F 38.6 °F 21.2 °F 42% 30.20 in 10.0 mi WNW 6.9 mph - N/A   Overcast
4:15 PM 42.8 °F 37.5 °F 21.2 °F 42% 30.20 in 10.0 mi WNW 9.2 mph - N/A   Overcast
4:35 PM 42.8 °F 38.0 °F 19.4 °F 39% 30.20 in 10.0 mi WNW 8.1 mph - N/A   Overcast
4:55 PM 42.8 °F 37.5 °F 19.4 °F 39% 30.20 in 10.0 mi WNW 9.2 mph - N/A   Overcast
5:15 PM 42.8 °F 36.2 °F 19.4 °F 39% 30.20 in 10.0 mi NW 12.7 mph 19.6 mph N/A   Overcast
5:35 PM 42.8 °F 38.0 °F 19.4 °F 39% 30.20 in 10.0 mi NW 8.1 mph - N/A   Overcast
5:55 PM 41.0 °F 36.4 °F 21.2 °F 45% 30.20 in 10.0 mi WNW 6.9 mph - N/A   Overcast
6:15 PM 41.0 °F 37.1 °F 21.2 °F 45% 30.20 in 10.0 mi NW 5.8 mph - N/A   Overcast
6:35 PM 41.0 °F 39.0 °F 21.2 °F 45% 30.21 in 10.0 mi WNW 3.5 mph - N/A   Overcast
6:55 PM 41.0 °F 39.0 °F 21.2 °F 45% 30.21 in 10.0 mi WNW 3.5 mph - N/A   Overcast
7:15 PM 41.0 °F 39.0 °F 21.2 °F 45% 30.22 in 10.0 mi NW 3.5 mph - N/A   Overcast
7:35 PM 41.0 °F 38.0 °F 21.2 °F 45% 30.22 in 10.0 mi NW 4.6 mph - N/A   Overcast
7:55 PM 41.0 °F 38.0 °F 21.2 °F 45% 30.22 in 10.0 mi NW 4.6 mph - N/A   Overcast
8:15 PM 41.0 °F 39.0 °F 21.2 °F 45% 30.23 in 10.0 mi NW 3.5 mph - N/A   Overcast
8:35 PM 41.0 °F 39.0 °F 21.2 °F 45% 30.23 in 10.0 mi NW 3.5 mph - N/A   Overcast
8:55 PM 41.0 °F 39.0 °F 21.2 °F 45% 30.23 in 10.0 mi West 3.5 mph - N/A   Overcast
9:15 PM 41.0 °F 39.0 °F 23.0 °F 49% 30.23 in 10.0 mi West 3.5 mph - N/A   Overcast
11:15 PM 39.2 °F 37.0 °F 21.2 °F 49% 30.22 in 10.0 mi West 3.5 mph - N/A   Overcast
11:35 PM 37.4 °F 33.8 °F 23.0 °F 56% 30.22 in 10.0 mi West 4.6 mph - N/A   Overcast
11:55 PM 37.4 °F - 23.0 °F 56% 30.21 in 10.0 mi Calm Calm - N/A   Overcast